Location: Hylvaty SDH
(49.9612°N, 16.4057°E)
Time: 18:37:47
(UTC+02:00)

Transit 4A - Pass Details

Date: 18 August 2020
Orbit: 862 x 982 km, 66.8° (Epoch: 28 September)

Event Time Altitude Azimuth Distance (km) Brightness Sun altitude
Rises 06:56:54 0° 161° (SSE) 3,491 11.0 9.7°
Reaches altitude 10° 07:00:13 10° 143° (SE) 2,578 10.7 10.2°
Maximum altitude 07:03:57 17° 103° (ESE) 2,128 11.4 10.8°
Drops below altitude 10° 07:07:46 10° 65° (ENE) 2,643 12.0 11.4°
Sets 07:11:12 0° 46° (NE) 3,616 11.9 11.9°
